Location: Mentone
(34.5413°N, 85.5351°W)
Time: 04:55:59
(UTC-06:00)

Tiros 1 despin weight - All Passes

Search period start: 30 January 2015 00:00
Search period end: 09 February 2015 00:00
Orbit: 599 x 649 km, 48.2° (Epoch: 29 January)

Date Brightness Start Highest point End Pass type
(mag) Time Alt. Az. Time Alt. Az. Time Alt. Az.
30 Jan - 01:23:33 10° WNW 01:27:19 24° SW 01:30:58 10° S night (unlit)
30 Jan - 15:29:40 10° S 15:32:36 17° SE 15:35:43 10° E daylight
30 Jan - 17:09:14 10° WSW 17:13:57 77° NW 17:18:42 10° NE daylight
30 Jan - 18:52:34 10° WNW 18:56:17 22° NNW 18:59:57 10° NNE visible
30 Jan - 20:36:36 10° NW 20:39:20 15° N 20:42:05 10° NE visible
30 Jan - 22:18:23 10° NW 22:22:19 26° NNE 22:26:14 10° E night (unlit)
30 Jan - 23:59:45 10° NW 00:04:25 76° SW 00:09:00 10° SE night (unlit)
31 Jan - 01:44:32 10° WSW 01:45:35 11° SW 01:46:24 10° SW night (unlit)
31 Jan - 15:46:38 10° SSW 15:50:56 37° SE 15:55:17 10° ENE daylight
31 Jan - 17:28:09 10° W 17:32:38 41° NNW 17:37:07 10° NE visible
31 Jan - 19:12:13 10° NW 19:15:20 17° N 19:18:25 10° NNE visible
31 Jan - 20:55:24 10° NNW 20:58:28 17° N 21:01:34 10° NE visible
31 Jan - 22:36:43 10° NW 22:41:10 41° NNE 22:45:34 10° E night (unlit)
01 Feb - 00:18:36 10° WNW 00:22:50 35° SW 00:27:00 10° SSE night (unlit)
01 Feb - 14:26:46 10° SE 14:28:09 11° SE 14:29:46 10° ESE daylight
01 Feb - 16:04:40 10° SW 16:09:21 78° SE 16:14:06 10° NE daylight
01 Feb - 17:47:31 10° W 17:51:30 26° NNW 17:55:27 10° NE visible
01 Feb - 19:31:42 10° NW 19:34:28 15° N 19:37:13 10° NE visible
01 Feb - 21:13:52 10° NNW 21:17:32 22° NNE 21:21:12 10° ENE night (unlit)
01 Feb - 22:55:08 10° NW 22:59:50 78° NE 23:04:27 10° ESE night (unlit)
02 Feb - 00:38:14 10° W 00:41:09 16° SW 00:43:53 10° SSW night (unlit)
02 Feb - 14:42:36 10° S 14:46:25 26° SE 14:50:21 10° ENE daylight
02 Feb - 16:23:20 10° WSW 16:27:56 54° NNW 16:32:36 10° NE daylight
02 Feb - 18:07:06 10° WNW 18:10:29 19° NNW 18:13:50 10° NNE visible
02 Feb - 19:50:43 10° NNW 19:53:36 16° N 19:56:31 10° NE visible
02 Feb - 21:32:12 10° NW 21:36:27 33° NNE 21:40:40 10° E night (unlit)
02 Feb - 23:13:47 10° WNW 23:18:20 51° SW 23:22:47 10° SSE night (unlit)
03 Feb - 15:00:13 10° SW 15:04:47 55° SE 15:09:24 10° ENE daylight
03 Feb - 16:42:29 10° W 16:46:43 31° NNW 16:50:56 10° NE daylight
03 Feb - 18:26:42 10° NW 18:29:35 16° N 18:32:27 10° NNE visible
03 Feb - 20:09:18 10° NNW 20:12:42 19° NNE 20:16:07 10° ENE visible
03 Feb - 21:50:33 10° NW 21:55:12 57° NNE 21:59:47 10° ESE night (unlit)
03 Feb - 23:32:55 10° W 23:36:40 23° SW 23:40:16 10° S night (unlit)
04 Feb - 13:38:51 10° S 13:41:55 18° SE 13:45:09 10° E daylight
04 Feb - 15:18:36 10° WSW 15:23:17 73° NW 15:28:00 10° NE daylight
04 Feb - 17:01:59 10° WNW 17:05:39 21° NNW 17:09:16 10° NNE daylight
04 Feb - 18:45:56 10° NNW 18:48:43 15° N 18:51:30 10° NE visible
04 Feb - 20:27:40 10° NW 20:31:40 27° NNE 20:35:41 10° E visible
04 Feb - 22:09:03 10° NW 22:13:45 73° SW 22:18:22 10° SE night (unlit)
05 Feb - 13:55:55 10° SSW 14:00:13 39° SE 14:04:37 10° ENE daylight
05 Feb - 15:37:32 10° W 15:41:57 39° NNW 15:46:24 10° NE daylight
05 Feb - 17:21:36 10° NW 17:24:41 17° N 17:27:44 10° NNE daylight
05 Feb - 19:04:41 10° NNW 19:07:49 17° N 19:10:59 10° NE visible
05 Feb - 20:45:59 10° NW 20:50:29 43° NNE 20:54:58 10° ESE visible
05 Feb - 22:27:54 10° WNW 22:32:09 33° SW 22:36:17 10° SSE night (unlit)
06 Feb - 12:35:45 10° SSE 12:37:25 12° SE 12:39:19 10° ESE daylight
06 Feb - 14:13:58 10° SW 14:18:38 83° SE 14:23:22 10° NE daylight
06 Feb - 15:56:52 10° WNW 16:00:48 25° NNW 16:04:42 10° NE daylight
06 Feb - 17:41:01 10° NW 17:43:47 15° N 17:46:34 10° NE visible
06 Feb - 19:23:06 10° NNW 19:26:50 23° NNE 19:30:36 10° ENE visible
06 Feb - 21:04:23 10° NW 21:09:07 82° NE 21:13:47 10° SE visible
06 Feb - 22:47:36 10° W 22:50:25 15° SW 22:53:03 10° SSW night (unlit)
07 Feb - 12:51:48 10° S 12:55:40 27° SE 12:59:39 10° ENE daylight
07 Feb - 14:32:39 10° WSW 14:37:13 51° NNW 14:41:49 10° NE daylight
07 Feb - 16:16:27 10° WNW 16:19:46 18° NNW 16:23:05 10° NNE daylight
07 Feb - 17:59:58 10° NNW 18:02:54 16° N 18:05:52 10° NE visible
07 Feb - 19:41:25 10° NW 19:45:43 34° NNE 19:50:01 10° E visible
07 Feb - 21:23:02 10° WNW 21:27:34 48° SW 21:32:03 10° SSE night (unlit)
08 Feb - 13:09:28 10° SW 13:14:00 58° SE 13:18:38 10° ENE daylight
08 Feb - 14:51:49 10° W 14:55:58 30° NNW 15:00:08 10° NE daylight
08 Feb - 16:36:00 10° NW 16:38:51 16° N 16:41:42 10° NNE daylight
08 Feb - 18:18:31 10° NNW 18:21:57 20° NNE 18:25:27 10° ENE visible
08 Feb - 19:59:45 10° NW 20:04:26 60° NE 20:09:04 10° ESE visible
08 Feb - 21:42:12 10° W 21:45:53 22° SW 21:49:26 10° S night (unlit)
